Temp
86 89 89 89 88 92 88 90 88 89 89 90 90 90 89 91 92 91 91 89 89 96
86 85 85 88 88 91 90 92 90 90 89 89 89 89 89 91 89 90 89 90 89 92
87 87 86 85 86 86 89 89 89 89 89 89 89 89 87 90 89 88 91 92 89 88
88 88 87 87 87 87 86 87 87 87 88 88 88 89 87 87 89 87 88 89 88 88
87 88 88 88 89 88 87 87 87 88 87 88 88 88 87 87 90 87 87 88 88 87
87 87 87 87 88 89 88 88 88 88 87 87 87 86 88 88 88 89 89 89 88 88
84 86 88 88 87 87 87 88 88 88 89 89 88 88 88 89 88 88 89 89 89 89
83 83 85 85 86 87 87 88 89 88 89 90 90 92 89 89 88 87 88 89 89 90
79 78 80 82 83 83 85 86 86 87 88 88 93 68 71 78 89 88 87 87 88 89
77 76 78 79 82 82 82 83 82 84 85 83 80 60 62 68 87 89 88 87 87 90
75 69 68 72 77 79 81 81 82 83 78 76 72 58 59 64 84 87 88 88 87 86
74 67 66 69 73 75 78 79 76 73 73 74 68 56 57 66 82 82 78 76 73 78
76 75 75 73 73 72 73 73 74 71 68 63 68 55 56 63 84 79 79 73 71 63
74 74 74 73 74 74 74 74 74 72 71 68 66 61 56 56 76 77 82 83 83 81
MSLP
1020.74 1020.72 1020.75 1020.67 1020.46 1020.32 1020.81 1020.98 1021.37 1021.63 1021.81 1021.88 1021.98 1022.08 1022.35 1022.17 1022.09 1022.17 1022.39 1022.55 1022.49 1021.76
1020.36 1020.75 1020.88 1020.72 1020.75 1020.47 1020.56 1020.31 1020.93 1021.29 1021.56 1021.72 1021.95 1022.04 1022.13 1022.01 1022.24 1022.34 1022.57 1022.49 1022.64 1022.25
1019.97 1020.38 1020.70 1020.71 1020.65 1020.50 1020.36 1020.50 1020.78 1021.01 1021.22 1021.48 1021.72 1021.86 1022.13 1021.83 1022.12 1022.40 1022.40 1022.41 1022.53 1022.56
1019.74 1019.88 1020.25 1020.23 1020.29 1020.31 1020.39 1020.49 1020.84 1021.04 1021.12 1021.30 1021.54 1021.66 1022.04 1022.10 1021.92 1022.35 1022.41 1022.49 1022.56 1022.49
1019.65 1019.66 1019.77 1019.89 1019.91 1019.74 1020.03 1020.26 1020.42 1020.58 1020.94 1021.05 1021.23 1021.36 1021.77 1021.92 1021.72 1022.17 1022.29 1022.27 1022.27 1022.28
1019.09 1019.31 1019.46 1019.69 1019.88 1019.83 1020.06 1020.14 1020.14 1020.53 1020.72 1020.83 1021.17 1021.41 1021.56 1021.60 1021.73 1021.85 1021.98 1022.01 1021.98 1021.97
1019.01 1019.18 1019.26 1019.38 1019.75 1019.98 1020.05 1020.08 1020.10 1020.25 1020.40 1020.46 1020.70 1021.15 1021.16 1021.36 1021.52 1021.61 1021.56 1021.76 1021.78 1021.73
1019.33 1019.39 1019.41 1019.51 1019.61 1019.81 1020.02 1019.98 1020.03 1020.13 1020.18 1020.19 1020.50 1020.65 1020.86 1021.15 1021.31 1021.52 1021.45 1021.39 1021.35 1021.19
1019.78 1020.04 1019.88 1019.87 1019.93 1020.02 1020.10 1020.18 1020.19 1020.16 1020.19 1020.34 1020.53 1021.24 1020.84 1021.35 1020.95 1021.00 1021.05 1021.02 1021.05 1020.95
1020.27 1020.26 1020.21 1020.11 1020.21 1020.14 1020.20 1020.33 1020.40 1020.33 1020.37 1020.90 1021.63 1022.66 1022.27 1021.71 1021.25 1020.65 1020.54 1020.72 1020.80 1020.64
1020.59 1020.89 1020.81 1020.55 1020.38 1020.50 1020.54 1020.53 1020.55 1020.72 1021.43 1021.87 1022.72 1023.05 1022.77 1022.16 1021.27 1020.69 1020.50 1020.36 1020.62 1020.88
1021.01 1021.25 1021.38 1021.35 1021.16 1021.11 1020.85 1020.88 1021.30 1021.75 1022.12 1022.83 1023.55 1023.60 1022.82 1022.37 1021.30 1021.02 1021.31 1021.38 1021.45 1021.52
1021.24 1021.05 1021.15 1021.54 1021.82 1021.60 1021.61 1021.58 1022.01 1022.59 1023.01 1023.72 1024.29 1024.10 1023.38 1022.64 1022.00 1021.97 1021.87 1022.26 1022.22 1022.49
1021.81 1021.79 1021.99 1022.12 1021.89 1021.88 1021.93 1021.96 1022.42 1022.90 1023.22 1024.38 1024.66 1024.54 1024.65 1024.13 1023.62 1023.19 1022.11 1021.75 1021.95 1022.33
Wind_Speed
5 3 5 9 0 8 8 7 8 8 7 6 7 6 4 5 6 4 4 2 4 3
7 6 6 3 5 6 4 6 8 8 8 7 7 6 6 6 6 3 5 4 3 6
7 7 6 6 6 4 4 6 6 9 9 8 7 6 5 6 7 6 6 6 3 5
8 7 6 6 5 5 7 8 8 8 7 8 8 7 7 5 4 7 7 6 6 6
9 8 8 7 6 5 6 7 5 7 7 8 9 8 8 8 6 8 8 8 7 8
11 9 9 8 9 8 7 7 7 7 7 8 8 9 9 9 8 8 8 8 8 7
9 9 9 9 9 9 9 9 9 8 8 7 7 7 8 8 8 8 8 7 7 7
5 6 7 7 8 7 7 8 8 8 8 8 7 8 9 7 7 8 8 8 8 9
7 5 6 6 7 6 6 6 5 7 8 8 8 9 3 5 7 9 9 9 9 10
3 4 5 6 6 5 5 4 4 3 5 2 7 16 11 6 9 8 9 9 8 8
6 5 4 2 6 5 5 4 4 3 8 6 9 13 12 9 11 10 9 8 7 8
7 6 3 3 3 1 3 4 7 10 9 9 11 17 15 13 4 3 7 10 9 8
6 7 7 6 4 4 6 7 8 9 9 10 10 19 20 16 4 3 2 4 5 5
6 7 6 6 6 6 7 8 8 9 10 10 8 14 17 18 6 6 3 3 2 5
Wind_Direction
211 209 213 220 284 210 172 192 180 182 192 191 193 195 190 208 234 184 221 242 338 310
204 201 215 247 200 200 187 171 189 191 195 197 200 211 194 230 212 222 223 207 247 278
205 207 205 205 217 203 199 227 169 194 197 201 202 209 214 202 202 212 229 241 205 269
209 206 201 223 204 180 176 183 190 199 199 201 200 207 205 242 202 214 225 250 244 249
215 213 210 220 204 186 169 195 206 194 202 208 207 200 207 221 222 219 234 238 244 250
213 211 218 208 218 203 193 185 194 198 211 217 211 208 212 215 218 226 236 243 246 254
221 215 219 210 208 221 216 213 209 211 219 212 214 215 202 208 216 224 227 234 245 252
207 212 207 203 200 209 216 221 221 218 218 216 212 205 201 205 217 224 234 234 240 231
197 205 199 190 192 189 207 215 224 228 228 224 237 25 109 265 219 221 229 236 237 251
189 198 234 190 188 182 197 198 203 214 232 48 37 4 343 262 249 239 233 239 259 259
138 87 15 227 189 170 188 188 186 180 95 94 54 13 356 309 248 238 244 251 256 264
131 124 117 137 91 71 142 152 71 50 64 65 40 9 15 340 299 320 43 49 46 47
142 134 133 134 125 100 81 104 102 94 90 73 54 28 21 6 29 35 119 94 94 67
108 110 116 117 110 127 130 116 114 108 97 81 41 46 26 17 42 355 8 9 46 81